KQ4Q-8 Weather Reports


time (UTC)temp
C
wind
direction
speed
KPH
gust
KPH
rain 1hr
cm
rain 24hr
cm
rain mn
cm
humidity
%
barometer
mb
20260906110051 18 257 3.2 3.2 0.23 0.00 0.25 100 1016.7
20260906105551 18 296 0.0 1.6 0.23 0.00 0.25 100 1016.5
20260906105143 18 295 0.0 0.0 0.23 0.00 0.25 100 1016.5
20260906104551 18 319 3.2 3.2 0.56 0.00 0.23 100 1016.5
20260906104051 18 330 3.2 3.2 0.56 0.00 0.23 100 1016.5
20260906103551 18 266 0.0 1.6 0.46 0.00 0.56 99 1016.3
20260906103052 18 323 1.6 3.2 0.13 0.00 0.56 99 1016.4
20260906102551 18 237 3.2 4.8 0.03 0.00 0.46 99 1016.4
20260906102051 18 228 3.2 4.8 0.03 0.00 0.36 98 1016.5
20260906101551 18 273 1.6 1.6 0.00 0.00 0.10 98 1016.4
20260906101051 18 215 1.6 3.2 0.00 0.00 0.03 98 1016.3
20260906100627 18 245 1.6 1.6 0.00 0.00 0.00 98 1016.3
20260906100052 18 279 1.6 1.6 0.00 0.00 0.00 97 1016.2
20260906095552 18 294 0.0 1.6 0.00 0.00 0.00 98 1016.2
20260906095051 18 309 1.6 3.2 0.00 0.00 0.00 98 1016.2
20260906094551 18 283 1.6 1.6 0.00 0.00 0.00 98 1016.1
20260906094051 18 208 3.2 3.2 0.00 0.00 0.00 98 1016.1
20260906093551 18 194 3.2 3.2 0.00 0.00 0.00 97 1016.1
20260906093051 18 294 1.6 3.2 0.00 0.00 0.00 97 1016.1
20260906092551 18 334 3.2 3.2 0.00 0.00 0.00 98 1016.1
20260906092051 18 319 1.6 4.8 0.00 0.00 0.00 99 1016.1
20260906091551 18 282 0.0 1.6 0.00 0.00 0.00 99 1016.1
20260906091051 18 231 3.2 3.2 0.00 0.00 0.00 99 1016.0
20260906090551 18 234 3.2 3.2 0.00 0.00 0.00 99 1016.0
20260906090051 18 290 1.6 1.6 0.00 0.00 0.00 99 1015.9
20260906085551 18 282 1.6 1.6 0.00 0.00 0.00 99 1015.9
20260906085051 17 222 3.2 3.2 0.00 0.00 0.00 99 1015.9
20260906084551 17 192 1.6 1.6 0.00 0.00 0.00 99 1015.9
20260906084051 17 280 1.6 1.6 0.00 0.00 0.00 99 1015.9
20260906083551 17 218 3.2 3.2 0.00 0.00 0.00 99 1015.9
20260906083051 17 207 3.2 3.2 0.00 0.00 0.00 99 1015.9
20260906082551 17 233 1.6 3.2 0.00 0.00 0.00 99 1016.0
20260906082050 17 283 0.0 1.6 0.00 0.00 0.00 99 1016.1
20260906081551 17 263 1.6 3.2 0.00 0.00 0.00 99 1016.1
20260906081051 17 242 1.6 3.2 0.00 0.00 0.00 99 1016.1
20260906080551 17 259 3.2 3.2 0.00 0.00 0.00 99 1016.1
20260906080051 17 285 1.6 3.2 0.00 0.00 0.00 99 1016.1
20260906075551 17 244 3.2 3.2 0.00 0.00 0.00 99 1016.0
20260906075051 17 270 1.6 3.2 0.00 0.00 0.00 99 1016.0
20260906074551 17 266 1.6 3.2 0.00 0.00 0.00 98 1016.0
20260906074051 17 237 3.2 3.2 0.00 0.00 0.00 99 1016.1
20260906073552 17 266 1.6 3.2 0.00 0.00 0.00 98 1016.2
20260906073051 17 261 1.6 3.2 0.00 0.00 0.00 98 1016.1
20260906072551 17 265 1.6 3.2 0.00 0.00 0.00 98 1016.2
20260906072051 18 237 1.6 3.2 0.00 0.00 0.00 98 1016.2
20260906071551 18 265 1.6 3.2 0.00 0.00 0.00 98 1016.2
20260906071051 18 248 1.6 3.2 0.00 0.00 0.00 98 1016.2
20260906070551 18 259 3.2 4.8 0.00 0.00 0.00 98 1016.2
20260906070051 18 264 3.2 3.2 0.00 0.00 0.00 98 1016.1
20260906065551 17 271 1.6 3.2 0.00 0.00 0.00 98 1016.2
20260906065051 17 269 1.6 1.6 0.00 0.00 0.00 97 1016.2
20260906064551 18 216 3.2 4.8 0.00 0.00 0.00 97 1016.2
20260906064051 18 236 1.6 3.2 0.00 0.00 0.00 98 1016.2
20260906063551 18 239 1.6 3.2 0.00 0.00 0.00 98 1016.2
20260906063051 18 274 1.6 1.6 0.00 0.00 0.00 98 1016.3
20260906062551 18 261 3.2 3.2 0.00 0.00 0.00 98 1016.4
20260906062051 18 263 1.6 3.2 0.00 0.00 0.00 98 1016.4
20260906061551 18 266 3.2 3.2 0.00 0.00 0.00 98 1016.7
20260906061051 18 251 3.2 3.2 0.00 0.00 0.00 97 1016.8
20260906060551 18 245 3.2 4.8 0.00 0.00 0.00 97 1016.8
20260906060051 18 263 3.2 3.2 0.00 0.00 0.00 97 1016.8
20260906055551 18 240 3.2 3.2 0.00 0.00 0.00 96 1016.9
20260906055052 18 235 3.2 3.2 0.00 0.00 0.00 97 1016.9
20260906054551 18 235 3.2 3.2 0.00 0.00 0.00 97 1016.8
20260906054051 18 290 0.0 3.2 0.00 0.00 0.00 97 1016.8
20260906053551 18 316 1.6 3.2 0.00 0.00 0.00 97 1016.7
20260906053053 18 270 1.6 3.2 0.00 0.00 0.00 97 1016.8
20260906052551 18 276 1.6 3.2 0.00 0.00 0.00 97 1016.8
20260906052050 18 267 3.2 3.2 0.00 0.00 0.00 97 1016.8
20260906051551 18 281 1.6 3.2 0.00 0.00 0.00 96 1016.8
20260906051051 18 273 3.2 3.2 0.00 0.00 0.00 96 1016.9
20260906050551 18 282 1.6 3.2 0.00 0.00 0.00 96 1016.9
20260906050051 18 267 1.6 3.2 0.00 0.00 0.00 95 1016.9
20260906045551 18 256 1.6 3.2 0.00 0.00 0.00 95 1016.9
20260906045052 19 291 1.6 1.6 0.00 0.00 0.00 95 1016.8
20260906044551 19 280 1.6 1.6 0.00 0.00 0.00 94 1016.8
20260906044051 19 259 1.6 3.2 0.00 0.00 0.00 93 1016.7
20260906043552 19 277 1.6 1.6 0.00 0.00 0.00 93 1016.7
20260906043051 19 261 1.6 3.2 0.00 0.00 0.00 93 1016.5
20260906042551 19 279 1.6 1.6 0.00 0.00 0.00 93 1016.5
20260906042051 19 265 1.6 3.2 0.00 0.00 0.00 93 1016.5
20260906041551 19 269 1.6 3.2 0.00 0.00 0.00 93 1016.5
20260906040622 19 247 3.2 3.2 0.00 0.00 0.00 92 1016.7
20260906040051 19 278 1.6 3.2 0.00 0.00 0.00 93 1016.8
20260906035550 19 273 1.6 3.2 0.00 0.00 0.00 92 1016.8
20260906035051 19 266 3.2 3.2 0.00 0.00 0.00 92 1016.8
20260906034551 19 261 3.2 3.2 0.00 0.00 0.00 92 1016.9
20260906034053 19 271 3.2 3.2 0.00 0.00 0.00 92 1017.0
20260906033551 19 258 1.6 3.2 0.00 0.00 0.00 92 1017.0
20260906033051 19 269 1.6 3.2 0.00 0.00 0.00 92 1017.2
20260906032551 20 280 1.6 3.2 0.00 0.00 0.00 91 1017.2
20260906032051 20 260 3.2 3.2 0.00 0.00 0.00 91 1017.2
20260906031551 20 262 3.2 3.2 0.00 0.00 0.00 90 1017.2
20260906031051 20 262 3.2 3.2 0.00 0.00 0.00 90 1017.3
20260906030550 20 253 3.2 3.2 0.00 0.00 0.00 90 1017.3
20260906030052 20 280 1.6 3.2 0.00 0.00 0.00 90 1017.4
20260906025552 20 240 3.2 4.8 0.00 0.00 0.00 89 1017.4
20260906025051 20 259 3.2 3.2 0.00 0.00 0.00 89 1017.5
20260906024551 20 266 3.2 3.2 0.00 0.00 0.00 89 1017.6
20260906024051 20 256 3.2 4.8 0.00 0.00 0.00 89 1017.5
20260906023552 20 242 3.2 4.8 0.00 0.00 0.00 88 1017.4
20260906023050 21 272 3.2 4.8 0.00 0.00 0.00 87 1017.3
20260906022551 21 257 3.2 3.2 0.00 0.00 0.00 87 1017.4
20260906022051 21 277 1.6 1.6 0.00 0.00 0.00 87 1017.4
20260906021551 21 291 1.6 3.2 0.00 0.00 0.00 87 1017.5
20260906021051 21 253 1.6 3.2 0.00 0.00 0.00 86 1017.4
20260906020551 21 234 1.6 3.2 0.00 0.00 0.00 85 1017.4
20260906020051 21 253 1.6 3.2 0.00 0.00 0.00 85 1017.3
20260906015551 21 220 3.2 4.8 0.00 0.00 0.00 84 1017.2
20260906015052 21 223 3.2 3.2 0.00 0.00 0.00 84 1017.2
20260906014552 22 240 3.2 3.2 0.00 0.00 0.00 83 1017.3
20260906014051 22 266 1.6 1.6 0.00 0.00 0.00 82 1017.2
20260906013551 22 301 1.6 1.6 0.00 0.00 0.00 82 1017.2
20260906013051 22 264 1.6 3.2 0.00 0.00 0.00 81 1017.2
20260906012551 22 251 1.6 3.2 0.00 0.00 0.00 81 1017.1
20260906012051 22 258 1.6 3.2 0.00 0.00 0.00 80 1017.0
20260906011551 22 236 1.6 3.2 0.00 0.00 0.00 80 1017.0
20260906011051 22 270 1.6 3.2 0.00 0.00 0.00 80 1016.9
20260906010551 22 229 1.6 3.2 0.00 0.00 0.00 80 1016.8
20260906010051 22 258 1.6 3.2 0.00 0.00 0.00 80 1016.8
20260906005551 22 246 1.6 3.2 0.00 0.00 0.00 80 1016.8
20260906005051 22 283 1.6 1.6 0.00 0.00 0.00 79 1016.8
20260906004551 22 213 1.6 4.8 0.00 0.00 0.00 79 1016.7
20260906004051 22 200 3.2 4.8 0.00 0.00 0.00 78 1016.5
20260906003551 22 271 1.6 1.6 0.00 0.00 0.00 78 1016.5
20260906003051 22 203 3.2 4.8 0.00 0.00 0.00 77 1016.5
20260906002551 23 311 1.6 3.2 0.00 0.00 0.00 77 1016.4
20260906002052 23 251 1.6 3.2 0.00 0.00 0.00 77 1016.5
20260906001551 23 230 1.6 3.2 0.00 0.00 0.00 77 1016.5
20260906001051 23 226 3.2 4.8 0.00 0.00 0.00 76 1016.5
20260906000551 23 234 1.6 3.2 0.00 0.00 0.00 76 1016.5
20260906000051 23 214 1.6 3.2 0.00 0.00 0.00 76 1016.4
20260905235551 23 273 1.6 3.2 0.00 0.00 0.00 75 1016.4
20260905235051 23 234 1.6 4.8 0.00 0.00 0.00 74 1016.4
20260905234551 23 237 1.6 3.2 0.00 0.00 0.00 73 1016.3
20260905234051 23 258 1.6 3.2 0.00 0.00 0.00 73 1016.3
20260905233551 24 230 3.2 4.8 0.00 0.00 0.00 73 1016.4
20260905233051 24 300 1.6 3.2 0.00 0.00 0.00 72 1016.3
20260905232552 24 279 1.6 3.2 0.00 0.00 0.00 71 1016.3
20260905232052 24 200 3.2 4.8 0.00 0.00 0.00 72 1016.3
20260905231551 25 265 1.6 3.2 0.00 0.00 0.00 71 1016.3
20260905231051 25 255 1.6 3.2 0.00 0.00 0.00 70 1016.4
20260905230551 25 294 1.6 3.2 0.00 0.00 0.00 70 1016.5
20260905230051 25 285 1.6 3.2 0.00 0.00 0.00 69 1016.5
20260905225551 26 272 1.6 3.2 0.00 0.00 0.00 67 1016.5
20260905225051 26 284 3.2 3.2 0.00 0.00 0.00 68 1016.4
20260905224551 26 265 1.6 3.2 0.00 0.00 0.00 66 1016.4
20260905224053 26 265 1.6 3.2 0.00 0.00 0.00 65 1016.4
20260905223551 27 263 1.6 3.2 0.00 0.00 0.00 63 1016.4
20260905223051 27 302 1.6 4.8 0.00 0.00 0.00 62 1016.3
20260905222552 27 214 3.2 6.4 0.00 0.00 0.00 63 1016.4
20260905222051 27 235 4.8 6.4 0.00 0.00 0.00 62 1016.4
20260905221551 27 287 3.2 4.8 0.00 0.00 0.00 62 1016.3
20260905221051 27 249 3.2 6.4 0.00 0.00 0.00 62 1016.1
20260905220553 28 213 6.4 9.7 0.00 0.00 0.00 61 1016.0
20260905220052 28 211 4.8 6.4 0.00 0.00 0.00 61 1016.0
20260905215551 28 178 3.2 4.8 0.00 0.00 0.00 61 1015.9
20260905215051 28 226 4.8 6.4 0.00 0.00 0.00 60 1016.0
20260905214551 28 288 3.2 4.8 0.00 0.00 0.00 59 1016.0
20260905214051 28 221 3.2 4.8 0.00 0.00 0.00 58 1015.8
20260905213551 28 311 1.6 3.2 0.00 0.00 0.00 60 1015.9
20260905213051 28 228 1.6 4.8 0.00 0.00 0.00 58 1015.8
20260905212551 28 250 0.0 3.2 0.00 0.00 0.00 57 1015.7
20260905212051 29 196 3.2 6.4 0.00 0.00 0.00 56 1015.7
20260905211551 29 267 3.2 6.4 0.00 0.00 0.00 56 1015.7
20260905211051 29 199 3.2 4.8 0.00 0.00 0.00 56 1015.7
20260905210551 28 214 3.2 6.4 0.00 0.00 0.00 56 1015.7
20260905210051 28 175 3.2 4.8 0.00 0.00 0.00 56 1015.6
20260905205552 28 292 1.6 3.2 0.00 0.00 0.00 56 1015.6
20260905205052 28 142 4.8 9.7 0.00 0.00 0.00 57 1015.7
20260905204551 28 195 3.2 6.4 0.00 0.00 0.00 58 1015.7
20260905204051 28 227 8.0 12.9 0.00 0.00 0.00 56 1015.6
20260905203551 29 189 1.6 9.7 0.00 0.00 0.00 56 1015.6
20260905203051 29 323 1.6 3.2 0.00 0.00 0.00 56 1015.6
20260905202551 29 208 6.4 9.7 0.00 0.00 0.00 55 1015.6
20260905202051 29 209 3.2 6.4 0.00 0.00 0.00 52 1015.5
20260905201551 29 183 3.2 4.8 0.00 0.00 0.00 54 1015.6
20260905201052 28 187 3.2 6.4 0.00 0.00 0.00 55 1015.6
20260905200551 29 326 0.0 3.2 0.00 0.00 0.00 55 1015.6
20260905200051 29 217 1.6 3.2 0.00 0.00 0.00 53 1015.6
20260905195551 29 244 1.6 4.8 0.00 0.00 0.00 54 1015.6
20260905195051 29 221 6.4 9.7 0.00 0.00 0.00 54 1015.6
20260905194551 30 161 1.6 6.4 0.00 0.00 0.00 52 1015.7
20260905194051 29 187 1.6 4.8 0.00 0.00 0.00 52 1015.7
20260905193551 29 195 1.6 6.4 0.00 0.00 0.00 53 1015.8
20260905193051 28 167 4.8 8.0 0.00 0.00 0.00 55 1015.9
20260905192551 28 288 1.6 3.2 0.00 0.00 0.00 55 1015.9
20260905192051 28 242 4.8 6.4 0.00 0.00 0.00 55 1016.0
20260905191551 28 214 6.4 9.7 0.00 0.00 0.00 54 1015.9
20260905191051 28 215 3.2 8.0 0.00 0.00 0.00 56 1016.0
20260905190551 27 211 3.2 3.2 0.00 0.00 0.00 59 1016.0
20260905190051 27 231 6.4 8.0 0.00 0.00 0.00 59 1016.1
20260905185551 27 256 4.8 9.7 0.00 0.00 0.00 57 1016.2
20260905185051 27 238 6.4 9.7 0.00 0.00 0.00 60 1016.2
20260905184551 27 275 6.4 8.0 0.00 0.00 0.00 61 1016.3
20260905184051 27 218 6.4 8.0 0.00 0.00 0.00 67 1016.3
20260905183551 27 247 3.2 6.4 0.00 0.00 0.00 67 1016.4
20260905183052 26 253 4.8 8.0 0.00 0.00 0.00 67 1016.5
20260905182551 26 222 4.8 6.4 0.00 0.00 0.00 70 1016.7
20260905182051 26 201 3.2 4.8 0.00 0.00 0.00 70 1016.7
20260905181551 26 228 6.4 8.0 0.00 0.00 0.00 69 1016.9
20260905181051 26 241 6.4 9.7 0.00 0.00 0.00 69 1016.9
20260905180551 26 208 3.2 3.2 0.00 0.00 0.00 70 1017.0
20260905180051 26 175 4.8 6.4 0.00 0.00 0.00 70 1016.9
20260905175551 26 273 3.2 6.4 0.00 0.00 0.00 69 1016.8
20260905175051 25 216 6.4 8.0 0.00 0.00 0.00 70 1016.8
20260905174551 25 263 3.2 4.8 0.00 0.00 0.00 72 1016.9
20260905174051 25 272 1.6 3.2 0.00 0.00 0.00 72 1016.8
20260905173551 25 224 4.8 6.4 0.00 0.00 0.00 73 1016.9
20260905173051 25 263 4.8 6.4 0.00 0.00 0.00 72 1017.1
20260905172551 24 251 4.8 9.7 0.00 0.00 0.00 76 1017.0
20260905172051 23 273 12.9 20.9 0.00 0.00 0.00 77 1016.9
20260905171551 23 254 9.7 12.9 0.00 0.00 0.00 78 1017.0
20260905171051 23 230 8.0 12.9 0.00 0.00 0.00 80 1017.0
20260905170551 23 272 9.7 14.5 0.00 0.00 0.00 81 1017.1
20260905170052 22 254 6.4 9.7 0.00 0.00 0.00 83 1017.0
20260905165551 22 245 4.8 8.0 0.00 0.00 0.00 84 1017.2
20260905165051 22 236 6.4 9.7 0.00 0.00 0.00 84 1017.3
20260905164551 22 242 8.0 11.3 0.00 0.00 0.00 83 1017.6
20260905164051 22 262 8.0 14.5 0.00 0.00 0.00 83 1017.9
20260905163138 22 264 4.8 9.7 0.00 0.00 0.00 84 1018.1
20260905162551 22 250 6.4 9.7 0.00 0.00 0.00 84 1018.4
20260905162051 22 260 6.4 11.3 0.00 0.00 0.00 84 1018.7
20260905161551 22 212 6.4 8.0 0.00 0.00 0.00 85 1018.7
20260905161051 22 228 4.8 6.4 0.00 0.00 0.00 84 1018.7
20260905160551 22 232 3.2 6.4 0.00 0.00 0.00 85 1018.8
20260905160052 22 216 4.8 6.4 0.00 0.00 0.00 85 1018.9
20260905155551 22 223 3.2 4.8 0.00 0.00 0.00 84 1018.9
20260905155051 22 216 3.2 4.8 0.00 0.00 0.00 84 1019.0
20260905154551 22 276 1.6 3.2 0.00 0.00 0.00 84 1019.0
20260905154051 22 228 3.2 3.2 0.00 0.00 0.00 83 1019.0
20260905153551 23 222 3.2 4.8 0.00 0.00 0.00 84 1018.9
20260905153052 23 263 3.2 3.2 0.00 0.00 0.00 83 1019.1
20260905152552 23 218 6.4 6.4 0.00 0.00 0.00 82 1019.1
20260905152051 23 269 1.6 3.2 0.00 0.00 0.00 82 1019.0
20260905151552 23 172 3.2 6.4 0.00 0.00 0.00 83 1019.1
20260905151052 23 292 1.6 3.2 0.00 0.00 0.00 82 1019.2
20260905150551 23 150 3.2 6.4 0.00 0.00 0.00 82 1019.2
20260905150052 22 308 1.6 4.8 0.00 0.00 0.00 83 1019.1
20260905145551 22 309 3.2 3.2 0.00 0.00 0.00 85 1019.2
20260905145052 22 339 3.2 4.8 0.00 0.00 0.00 84 1019.1
20260905144551 23 137 3.2 3.2 0.00 0.00 0.00 85 1018.7
20260905144052 23 316 1.6 3.2 0.00 0.00 0.00 83 1018.8
20260905143552 24 337 1.6 3.2 0.00 0.00 0.00 83 1018.7
20260905143051 24 319 3.2 9.7 0.00 0.00 0.00 81 1018.4
20260905142551 24 238 4.8 6.4 0.00 0.00 0.00 82 1018.2
20260905142051 23 246 6.4 9.7 0.00 0.00 0.00 82 1018.1
20260905141600 23 259 6.4 6.4 0.00 0.00 0.00 82 1017.8
20260905141052 23 248 4.8 8.0 0.00 0.00 0.00 82 1017.9
20260905140551 23 244 6.4 8.0 0.00 0.00 0.00 82 1017.9
20260905140051 23 230 6.4 9.7 0.00 0.00 0.00 82 1017.9
20260905135551 23 244 4.8 6.4 0.00 0.00 0.00 82 1018.1
20260905135051 23 238 9.7 12.9 0.00 0.00 0.00 81 1017.9
20260905134551 23 252 8.0 9.7 0.00 0.00 0.00 81 1017.9
20260905134051 23 263 8.0 9.7 0.00 0.00 0.00 81 1018.1
20260905133551 23 267 6.4 8.0 0.00 0.00 0.00 81 1018.1
20260905133051 23 252 9.7 12.9 0.00 0.00 0.00 82 1018.2
20260905132551 23 237 6.4 8.0 0.00 0.00 0.00 82 1018.2
20260905132054 23 249 6.4 9.7 0.00 0.00 0.00 82 1018.2
20260905131551 23 265 4.8 6.4 0.00 0.00 0.00 82 1018.2
20260905131052 23 265 6.4 9.7 0.00 0.00 0.00 82 1018.2
20260905130551 23 267 4.8 6.4 0.00 0.00 0.00 82 1018.2
20260905130051 23 256 4.8 6.4 0.00 0.00 0.00 82 1018.1
20260905125551 23 226 4.8 6.4 0.00 0.00 0.00 83 1018.2
20260905125051 23 273 4.8 4.8 0.00 0.00 0.00 83 1018.3
20260905124553 23 237 6.4 8.0 0.00 0.00 0.00 84 1018.3
20260905124051 22 228 4.8 4.8 0.00 0.00 0.00 85 1018.3
20260905123551 22 238 3.2 6.4 0.00 0.00 0.00 85 1018.3
20260905123051 21 249 4.8 6.4 0.00 0.00 0.00 87 1018.3
20260905122553 21 228 4.8 6.4 0.00 0.00 0.00 88 1018.1
20260905122051 21 279 3.2 3.2 0.00 0.00 0.00 90 1018.1
20260905121551 20 260 3.2 3.2 0.00 0.00 0.00 90 1018.1
20260905121051 20 256 4.8 6.4 0.00 0.00 0.00 91 1018.1
20260905120551 20 226 6.4 6.4 0.00 0.00 0.00 91 1017.9
20260905120051 20 235 4.8 4.8 0.00 0.00 0.00 91 1017.9
20260905115551 20 241 3.2 4.8 0.00 0.00 0.00 92 1017.9
20260905115051 20 250 3.2 3.2 0.00 0.00 0.00 92 1017.8
20260905114552 20 273 3.2 3.2 0.00 0.00 0.00 92 1017.9
20260905114051 20 288 1.6 3.2 0.00 0.00 0.00 92 1017.9
20260905113551 20 281 3.2 3.2 0.00 0.00 0.00 93 1017.8
20260905113051 20 246 3.2 4.8 0.00 0.00 0.00 93 1017.8
20260905112551 20 259 3.2 4.8 0.00 0.00 0.00 93 1017.8
20260905112051 19 284 3.2 3.2 0.00 0.00 0.00 94 1017.8
20260905111552 19 277 3.2 4.8 0.00 0.00 0.00 94 1017.7
20260905111052 19 278 3.2 3.2 0.00 0.00 0.00 95 1017.7
20260905110551 19 260 3.2 3.2 0.00 0.00 0.00 95 1017.7